| time (UTC) | temp C | wind direction | speed KPH | gust KPH | rain 1hr cm | rain 24hr cm | rain mn cm | humidity % | barometer mb |
| 20260505192218 | 13 | 158 | 3.2 | 12.9 | 0.00 | 0.00 | 0.00 | 42 | 1012.3 |
| 20260505191238 | 12 | 203 | 11.3 | 24.1 | 0.00 | 0.00 | 0.00 | 48 | 1012.2 |
| 20260505190218 | 12 | 135 | 6.4 | 9.7 | 0.00 | 0.00 | 0.00 | 48 | 1012.3 |
| 20260505185218 | 12 | 135 | 4.8 | 16.1 | 0.00 | 0.00 | 0.00 | 45 | 1012.1 |
| 20260505184217 | 12 | 203 | 9.7 | 16.1 | 0.00 | 0.00 | 0.00 | 42 | 1011.9 |
| 20260505183218 | 12 | 203 | 16.1 | 20.9 | 0.00 | 0.00 | 0.00 | 38 | 1012.1 |
| 20260505182218 | 12 | 248 | 8.0 | 14.5 | 0.00 | 0.00 | 0.00 | 40 | 1012.5 |
| 20260505181217 | 12 | 203 | 9.7 | 17.7 | 0.00 | 0.00 | 0.00 | 43 | 1012.1 |
| 20260505180218 | 11 | 203 | 8.0 | 12.9 | 0.00 | 0.00 | 0.00 | 39 | 1011.9 |
| 20260505175218 | 11 | 180 | 8.0 | 16.1 | 0.00 | 0.00 | 0.00 | 43 | 1011.9 |
| 20260505174218 | 11 | 180 | 12.9 | 20.9 | 0.00 | 0.00 | 0.00 | 41 | 1011.9 |
| 20260505173258 | 11 | 203 | 9.7 | 17.7 | 0.00 | 0.00 | 0.00 | 42 | 1012.4 |
| 20260505172218 | 11 | 225 | 9.7 | 16.1 | 0.00 | 0.00 | 0.00 | 46 | 1012.0 |
| 20260505171238 | 10 | 293 | 3.2 | 8.0 | 0.00 | 0.00 | 0.00 | 46 | 1011.4 |
| 20260505170258 | 10 | 203 | 12.9 | 17.7 | 0.00 | 0.00 | 0.00 | 45 | 1011.6 |
| 20260505165218 | 9 | 203 | 12.9 | 24.1 | 0.00 | 0.00 | 0.00 | 49 | 1011.5 |
| 20260505164238 | 8 | 180 | 11.3 | 14.5 | 0.00 | 0.00 | 0.00 | 49 | 1011.4 |
| 20260505163218 | 8 | 203 | 16.1 | 19.3 | 0.00 | 0.00 | 0.00 | 50 | 1011.9 |
| 20260505162217 | 8 | 203 | 14.5 | 19.3 | 0.00 | 0.00 | 0.00 | 50 | 1011.8 |
| 20260505161217 | 8 | 225 | 11.3 | 16.1 | 0.00 | 0.00 | 0.00 | 51 | 1011.8 |
| 20260505160237 | 8 | 203 | 12.9 | 16.1 | 0.00 | 0.00 | 0.00 | 50 | 1011.6 |
| 20260505153217 | 8 | 203 | 12.9 | 24.1 | 0.00 | 0.00 | 0.00 | 51 | 1011.5 |
| 20260505152238 | 8 | 180 | 12.9 | 19.3 | 0.00 | 0.00 | 0.00 | 53 | 1011.5 |
| 20260505151218 | 8 | 203 | 6.4 | 9.7 | 0.00 | 0.00 | 0.00 | 58 | 1011.6 |